Regional Weather Roundup
Issued by NWS

Home | Current Version | Previous Version | Graphics & Text | Print | Product List | Glossary On
Versions: 1 2 3 4 5 6 7 8 9 10 11 12 13 14 15 16 17 18 19 20 21 22 23 24 25 26 27 28 29 30 31 32 33 34 35 36 37 38 39 40 41 42 43 44 45 46 47 48 49 50
860
ASUS44 KLIX 211810
RWRLA
LOUISIANA WEATHER ROUNDUP
NATIONAL WEATHER SERVICE NEW ORLEANS LA
1200 PM CST SUN DEC 21 2014

NOTE: "FAIR" INDICATES FEW OR NO CLOUDS BELOW 12,000 FEET WITH NO
      SIGNIFICANT WEATHER AND/OR OBSTRUCTIONS TO VISIBILITY.
      SKY/WX - SKY CONDITION AND SIGNIFICANT WEATHER.
      TMP - AIR TEMPERATURE.    DP   - DEWPOINT TEMPERATURE.
      RH  - RELATIVE HUMIDITY.  PRES - PRESSURE.
      HX  - HEAT INDEX.         WCI  - WIND CHILL INDEX.

*  THESE STATIONS ARE NOT NWS OR FAA STATIONS AND ARE NOT UNDER
   NWS QUALITY CONTROL.

LAZ040-048-061>063-065-066-069-211900-
SOUTHEAST LOUISIANA

CITY           SKY/WX    TMP DP  RH WIND       PRES   REMARKS
N.O. AUDUBON     N/A     59  53  81 MISG        N/A
6HR MIN TEMP:  50; 6HR MAX TEMP:  59;

N.O. INTL ARPT CLOUDY    58  49  72 CALM      30.10F
6HR MIN TEMP:  52; 6HR MAX TEMP:  58;

N.O. LAKEFRONT CLOUDY    57  50  77 CALM      30.10F
6HR MIN TEMP:  53; 6HR MAX TEMP:  57;

N.O. DOWNTOWN* CLOUDY    57  48  72 NE5       30.10F
6HR MIN TEMP:  52; 6HR MAX TEMP:  57;

SLIDELL        CLOUDY    59  49  69 CALM      30.09F
6HR MIN TEMP:  48; 6HR MAX TEMP:  59;

BATON ROUGE    CLOUDY    56  47  71 CALM      30.09F
6HR MIN TEMP:  47; 6HR MAX TEMP:  56;

BOOTHVILLE     CLOUDY    59  55  87 NE5       30.07F
6HR MIN TEMP:  55; 6HR MAX TEMP:  59;

BELLE CHASSE   CLOUDY    58  51  78 SE5       30.10S
6HR MIN TEMP:  52; 6HR MAX TEMP:  58;

BOGALUSA*        N/A     58  48  68 CALM      30.11F
6HR MIN TEMP:  45; 6HR MAX TEMP:  58;

GALLIANO*      CLOUDY    58  53  82 MISG      30.10F
6HR MIN TEMP:  55; 6HR MAX TEMP:  58;

NEW ROADS*     MOCLDY    52  47  83 CALM      30.09F
6HR MIN TEMP:  45; 6HR MAX TEMP:  52;

GONZALES*      CLOUDY    56  52  85 N3        30.08F
6HR MIN TEMP:  48; 6HR MAX TEMP:  57;

HAMMOND*       NOT AVBL
HOUMA*         CLOUDY    55  52  88 NE5       30.09F
PORT FOURCHON* CLOUDY    57  54  88 NE9       30.11

$$

LAZ041-044-053-054-211900-
SOUTHWEST LOUISIANA

CITY           SKY/WX    TMP DP  RH WIND       PRES   REMARKS
LAKE CHARLES   CLOUDY    48  47  96 S3        30.10F FOG
6HR MIN TEMP:  44; 6HR MAX TEMP:  48;

LAFAYETTE      CLOUDY    50  48  93 VRB3      30.09F FOG
6HR MIN TEMP:  48; 6HR MAX TEMP:  50;

PATTERSON      CLOUDY    54  48  82 N3        30.09F
6HR MIN TEMP:  50; 6HR MAX TEMP:  54;

SALT POINT       N/A     59  51  75 VRB3      30.08F
6HR MIN TEMP:  53; 6HR MAX TEMP:  59;

NEW IBERIA     CLOUDY    52  49  89 NE7       30.10F FOG
6HR MIN TEMP:  47; 6HR MAX TEMP:  52;

CHENAULT AIRPK FOG       48  48 100 SE5       30.10F VSB 3/4

$$

LAZ027-028-211900-
CENTRAL LOUISIANA

CITY           SKY/WX    TMP DP  RH WIND       PRES   REMARKS
FORT POLK      SUNNY     58  47  68 VRB2      30.07F
6HR MIN TEMP:  39; 6HR MAX TEMP:  58;

ALEXANDRIA INT MOSUNNY   54  47  77 SE7       30.08F
6HR MIN TEMP:  34; 6HR MAX TEMP:  55;

ALEXANDRIA     CLOUDY    52  46  80 S5        30.09F
6HR MIN TEMP:  32; 6HR MAX TEMP:  53;


$$

LAZ001-002-211900-
NORTHWEST LOUISIANA

CITY           SKY/WX    TMP DP  RH WIND       PRES   REMARKS
SHREVEPORT     PTSUNNY   54  44  69 SE6       30.09F
6HR MIN TEMP:  35; 6HR MAX TEMP:  55;

BARKSDALE AFB  NOT AVBL
DTN SHREVEPORT MOSUNNY   53  43  68 S8        30.09F
6HR MIN TEMP:  32; 6HR MAX TEMP:  53;


$$

LAZ014-016-211900-
NORTHEAST LOUISIANA

CITY           SKY/WX    TMP DP  RH WIND       PRES   REMARKS
MONROE         SUNNY     56  42  59 E3        30.11F
6HR MIN TEMP:  33; 6HR MAX TEMP:  56;

TALLULAH       SUNNY     56  46  69 E5        30.10F
6HR MIN TEMP:  31; 6HR MAX TEMP:  56;


$$




USA.gov is the U.S. government's official web portal to all federal, state and local government web resources and services.